Regional Weather Roundup
Issued by NWS Sterling, VA

Home | Current Version | Previous Version | Graphics & Text | Print | Product List | Glossary On
Versions: 1 2 3 4 5 6 7 8 9 10 11 12 13 14 15 16 17 18 19 20 21 22 23 24 25 26 27 28 29 30 31 32 33 34 35 36 37 38 39 40 41 42 43 44 45 46 47 48 49 50
000
ASUS41 KLWX 041210
RWRLWX

REGIONAL WEATHER ROUNDUP
NATIONAL WEATHER SERVICE BALTIMORE MD/WASHINGTON DC
700 AM EST WED MAR 04 2015

Note: "FAIR" indicates few or no clouds below 12,000 feet
with no significant weather and/or obstructions to visibility.
 TC=TEMPERATURE CELSIUS

 * =Non NWS site. Station does not report precipitation (e.g. rain,
    snow, etc.), thunder, or fog.

DCZ001-MDZ009-015-VAZ040>042-051-053>054-041300-
WASHINGTON METRO

CITY           SKY/WX    TMP DP  RH WIND       PRES   REMARKS
WASHINGTON NAT LGT RAIN  40  36  86 S3        29.89S
DULLES         CLOUDY    37  35  92 S5        29.88R
ANDREWS AFB    CLOUDY    39  39 100 SW8       29.87R
FT BELVOIR     CLOUDY    39  37  94 N1        29.89R FOG
QUANTICO       CLOUDY    37  35  92 SW5       29.89F FOG
COLLEGE PARK*  CLOUDY    39  37  93 CALM      29.88S
LEESBURG*      CLOUDY    37  37 100 CALM      29.88R FOG
MANASSAS*      CLOUDY    37  37 100 CALM      29.89S
GAITHERSBURG*  CLOUDY    37  34  87 CALM      29.91R

$$

MDZ006>007-011-014-041300-
BALTIMORE METRO

CITY           SKY/WX    TMP DP  RH WIND       PRES   REMARKS
BWI AIRPORT    CLOUDY    38  36  92 W6        29.86R FOG
MD SCIENCE CTR   N/A     39  36  89 MISG      29.88R
MARTIN STATE   CLOUDY    36  36 100 CALM      29.89R FOG
ANNAPOLIS      CLOUDY    40  37  89 CALM      29.87R
FORT MEADE*    CLOUDY    37  36  93 SW3       29.90R

$$

MDZ012-015-019>023-041300-
MARYLAND EASTERN SHORE

CITY           SKY/WX    TMP DP  RH WIND       PRES   REMARKS
OCEAN CITY     CLOUDY    44  43  96 W9        29.92S
SALISBURY      CLOUDY    45  41  86 SW9       29.91S
BAY BRIDGE AP* MIX PCPN  39  37  93 S3        29.88R
CAMBRIDGE*     CLOUDY    45  43  93 SW5       29.88S
EASTON*        CLOUDY    43  43 100 SW7       29.92R

$$

MDZ017>025-041300-
SOUTHERN MARYLAND

CITY           SKY/WX    TMP DP  RH WIND       PRES   REMARKS
PATUXENT RIVER CLOUDY    45  42  89 SW7       29.89F
ST INIGOES     CLOUDY    44  40  85 W3        29.92R FOG
LEONARDTOWN*   CLOUDY    43  41  93 SW8       29.91F

$$

MDZ003>005-041300-
NORTH CENTRAL MARYLAND

CITY           SKY/WX    TMP DP  RH WIND       PRES   REMARKS
FREDERICK*     LGT RAIN  37  32  81 S6        29.90R
HAGERSTOWN APT CLOUDY    36  33  89 E6        29.85F FOG
WESTMINSTER*   RAIN      37  36  93 SW8       29.85R

$$

MDZ501>502-041300-
WESTERN MARYLAND

CITY           SKY/WX    TMP DP  RH WIND       PRES   REMARKS
OAKLAND*       CLOUDY    36 N/A N/A W8        29.85S HAZE
CUMBERLAND*    CLOUDY    36  36 100 CALM        N/A  VSB 1/4

$$

VAZ025>031-041300-
SHENANDOAH VALLEY

CITY           SKY/WX    TMP DP  RH WIND       PRES   REMARKS
WINCHESTER*    CLOUDY    45  37  76 W6        29.85R
FRONT ROYAL*   CLOUDY    43  41  93 CALM      29.83R VSB 1
LURAY*         FOG       43  43 100 CALM      29.85S VSB 1
NEW MARKET*    CLOUDY    37  36  99 CALM      29.85S
STAUNTON*      CLOUDY    44  43  96 CALM      29.87F FOG
WAYNESBORO*    CLOUDY    47  46  97 SW3       29.86F

$$

WVZ021-048>050-054>055-041300-
EASTERN WEST VIRGINIA PANHANDLE

CITY           SKY/WX    TMP DP  RH WIND       PRES   REMARKS
MARTINSBURG    CLOUDY    36  33  89 E5        29.86R FOG
PETERSBURG*    NOT AVBL

$$

VAZ036>039-050-041300-
CENTRAL FOOTHILLS

CITY           SKY/WX    TMP DP  RH WIND       PRES   REMARKS
CHARLOTTESVILL MOCLDY    38  36  92 CALM      29.86S FOG
CULPEPER*      CLOUDY    39  39 100 CALM      29.88S FOG
ORANGE*        MOCLDY    39  37  93 CALM      29.88F FOG
GORDONSVILLE*  PTSUNNY   39  37  93 CALM      29.86F
WARRENTON*     CLOUDY    39  39 100 CALM      29.87S FOG

$$

VAZ055>057-041300-
NORTH AND CENTRAL PIEDMONT

CITY           SKY/WX    TMP DP  RH WIND       PRES   REMARKS
FREDERICKSBRG* LGT RAIN  46  46 100 W3        29.88S
STAFFORD*      CLOUDY    40  50 100 CALM      29.92S FOG

$$

NCZ024-NYZ072-PAZ021-071-VAZ022-071-041300-
OTHER REGIONAL OBSERVATIONS

CITY           SKY/WX    TMP DP  RH WIND       PRES   REMARKS
NEW YORK CITY  CLOUDY    36  33  89 MISG      29.83R FOG
PHILADELPHIA   CLOUDY    35  33  92 SW8       29.86R FOG     WCI  29
PITTSBURGH     LGT SNOW  33  32  96 SW5       29.88R VSB 1
ROANOKE        LGT RAIN  42  41  96 N5        29.92R FOG
RICHMOND       CLOUDY    53  50  89 SW8       29.91R
RALEIGH        DRZL/FOG  43  41  93 SW7       30.01S VSB 1/8

$$

ANZ530>537-041300-
MARINE OBSERVATIONS

STATION/POSITION TIME  TEMP    WIND        PRES
                       AIR SEA DIR/SP/G
                 (UTC) (F)     (DEG/KT/KT) (MB)
THOMAS PT LIGHT  1200   38 32  190/  6/  7 1012.8R
BALT KEY BRIDGE  1100   39     220/  3/  4 1010.6R
COVE POINT       1100   42     250/ 12/ 16 1012.2R
LEWISETTA        1100   42 34  350/  1/  4 1012.9R
SOLOMONS ISLAND  1100      33                N/A

$$




USA.gov is the U.S. government's official web portal to all federal, state and local government web resources and services.